User: anonymous   Login
Location: Theydon Bois
(51.6750°N, 0.1050°E)
Time: 20:05:37
(UTC+01:00)
Language:

Meteor 2-1 Rocket - Orbit

View from above orbital plane
View from above orbital plane
View from above satellite
View from above satellite

Ground track
Ground track

The orbit data is extracted from the following two-line orbital elements,

1  8027U 75064B   18175.80777015 -.00000104 +00000-0 -68589-4 0  9993
2  8027 081.2990 056.8051 0051309 297.3910 062.2044 14.07331033204629
Epoch (UTC): 24 June 2018 19:23:11
Eccentricity: 0.0051309
inclination: 81.2990°
perigee height: 831 km
apogee height: 906 km
right ascension of ascending node: 56.8051°
argument of perigee: 297.3910°
revolutions per day: 14.07331033
mean anomaly at epoch: 62.2044°
orbit number at epoch: 20462

The dashed part of the orbit path shows where the satellite is in the earth's shadow,  

DLR